Regional Weather Roundup
Issued by NWS State College, PA

Home | Current Version | Previous Version | Text Only | Print | Product List | Glossary On
Versions: 1 2 3 4 5 6 7 8 9 10 11 12 13 14 15 16 17 18 19 20 21 22 23 24 25 26 27 28 29 30 31 32 33 34 35 36 37 38 39 40 41 42 43 44 45 46 47 48 49 50
000
ASUS41 KCTP 221603
RWRCTP

REGIONAL WEATHER ROUNDUP
NATIONAL WEATHER SERVICE STATE COLLEGE PA
1200 PM EDT FRI AUG 22 2014

Note: "fair" indicates few or no clouds below 12,000 feet with no
significant weather and/or obstructions to visibility.

* = STATION THAT DOES NOT REPORT PRECIPITATION /E.G. RAIN...SNOW...ETC/
    THUNDER OR FOG.

PAZ002>004-007>009-013>016-020>023-029>032-221700-
WESTERN PENNSYLVANIA

CITY           SKY/WX    TMP DP  RH WIND       PRES   REMARKS
ERIE           CLOUDY    76  68  76 NW7       29.99F
MEADVILLE      CLOUDY    72  68  87 SW3       30.02F
FRANKLIN*      PTSUNNY   72  66  83 W7        30.04F
NEW CASTLE     NOT AVBL
BEAVER COUNTY  CLOUDY    73  70  88 CALM      30.03
BUTLER*        CLOUDY    75  66  73 W3        30.04F
PITTSBURGH INT PTSUNNY   77  69  76 CALM      30.01F
PITTSBURGH     CLOUDY    76  67  73 SE3       30.02F
INDIANA*       CLOUDY    73  68  83 VRB3      30.07F HAZE
LATROBE        CLOUDY    75  70  83 CALM      30.04F
WASHINGTON CO* PTSUNNY   79  70  73 S6        30.03S
$$

PAZ004>006-010>012-017>019-024>028-033>037-041-042-045-046-049>053-221700-
CENTRAL PENNSYLVANIA

CITY           SKY/WX    TMP DP  RH WIND       PRES   REMARKS
BRADFORD       CLOUDY    72  65  78 SE3       30.05F
DUBOIS         CLOUDY    68  67  96 VRB3      30.04F FOG
CLEARFIELD     LGT RAIN  69  69 100 CALM      30.05S FOG
JOHNSTOWN      CLOUDY    70  64  81 S3        30.07F
ALTOONA        RAIN      68  67  96 CALM      30.06S FOG
STATE COLLEGE  CLOUDY    73  68  83 SW7       30.04R
WILLIAMSPORT   CLOUDY    75  67  76 SE6       29.99F
SELINSGROVE    PTSUNNY   78  67  68 SE3       30.00F
FT INDIANTOWN  CLOUDY    73  71  93 E6        30.02F
CAPITAL CITY   CLOUDY    73  68  84 E3        30.01F
HARRISBURG     CLOUDY    76  68  76 CALM      30.01S
YORK           PTSUNNY   76  69  79 NE3       30.02S HAZE
$$

PAZ038>040-043-044-047-048-054-055-060>062-067>071-221700-
EASTERN PENNSYLVANIA

CITY           SKY/WX    TMP DP  RH WIND       PRES   REMARKS
SCRANTON       CLOUDY    74  64  71 VRB3      30.03F
MOUNT POCONO   CLOUDY    65  61  87 SE5       30.08F
ALLENTOWN      CLOUDY    72  64  78 E3        30.04F
QUAKERTOWN*    CLOUDY    73  66  78 CALM      30.04F
READING        CLOUDY    73  64  73 E5        30.02F
LANCASTER      PTSUNNY   75  66  73 E8        30.02F
COATESVILLE    PTSUNNY   73  73 100 CALM      30.04F
POTTSTOWN      CLOUDY    70  65  84 NE6       30.05S
BLUE BELL      CLOUDY    75  68  78 E6        30.02F
DOYLESTOWN     CLOUDY    72  67  84 VRB3      30.03F
WILLOW GROVE   NOT AVBL
NORTH PHILA    CLOUDY    74  65  73 E10       30.04S
PHILADELPHIA   CLOUDY    75  67  76 E9        30.02F
$$



USA.gov is the U.S. government's official web portal to all federal, state and local government web resources and services.